San Antonio Stinson, TX

7:25 PM CDT on September 25, 2017 (GMT -0500)
Stinson Municipal

Weather History for KSSF - March, 2014

Change the Weather History Date:

Monday, March 17, 2014

  Actual Average Record
Temperature  
Mean Temperature 57 °F -  
Max Temperature 71 °F 69 °F 87 °F (2011)
Min Temperature 43 °F 50 °F 33 °F (1997)
Degree Days  
Heating Degree Days 8    
Growing Degree Days 7 (Base 50)    
Moisture  
Dew Point 26 °F    
Average Humidity 34    
Maximum Humidity 56    
Minimum Humidity 16    
Precipitation  
Precipitation 0.00 in - - ()
Sea Level Pressure  
Sea Level Pressure 29.94 in    
Wind  
Wind Speed 10 mph (WNW)    
Max Wind Speed 17 mph    
Max Gust Speed 26 mph    
Visibility 10 miles    
Events      
Averages and records for this station are not official NWS values.
T = Trace of Precipitation, MM = Missing Value Source: NWS Daily Summary

Daily Weather History Graph

Daily Weather History Graph

Search for Another Location

Airport or City:

Trip Planner

Search our weather history database for the weather conditions in past years. The results will help you decide how hot, cold, wet, or windy it might be!

Date:

Astronomy

Mar. 17, 2014 Rise Set
Actual Time 7:41 AM CDT 7:43 PM CDT
Civil Twilight 7:17 AM CDT 8:07 PM CDT
Nautical Twilight 6:49 AM CDT 8:34 PM CDT
Astronomical Twilight 6:22 AM CDT 9:02 PM CDT
Moon 8:53 PM CDT (3/17) 8:03 AM CDT (3/17)
Length of Visible Light 12h 49m
Length of Day
12h 02m
Full, 99% of the Moon is Illuminated
Mar 17
Full
Mar 23
Last Quarter
Mar 30
New
Apr 7
First Quarter
Apr 15
Full

Hourly Weather History & Observations

Time (CDT) Temp. Windchill Dew Point Humidity Pressure Visibility Wind Dir Wind Speed Gust Speed Precip Events Conditions
12:53 AM 52.0 °F - 30.0 °F 43% 30.04 in 10.0 mi NNW 15.0 mph 20.7 mph N/A   Clear
1:53 AM 51.1 °F - 30.0 °F 44% 30.04 in 10.0 mi North 15.0 mph 26.5 mph N/A   Partly Cloudy
2:53 AM 50.0 °F - 30.0 °F 46% 30.04 in 10.0 mi North 17.3 mph 24.2 mph N/A   Mostly Cloudy
3:53 AM 50.0 °F - 28.9 °F 44% 30.02 in 10.0 mi North 11.5 mph 19.6 mph N/A   Partly Cloudy
4:53 AM 48.0 °F - 28.9 °F 48% 30.01 in 10.0 mi NNW 4.6 mph - N/A   Clear
5:53 AM 46.9 °F - 28.0 °F 48% 30.02 in 10.0 mi NNW 6.9 mph - N/A   Clear
6:53 AM 43.0 °F 38.8 °F 28.0 °F 56% 30.03 in 10.0 mi SW 6.9 mph - N/A   Clear
7:53 AM 44.1 °F 40.1 °F 28.9 °F 55% 30.05 in 10.0 mi West 6.9 mph - N/A   Clear
8:53 AM 48.9 °F - 28.0 °F 44% 30.05 in 10.0 mi NW 6.9 mph - N/A   Clear
9:53 AM 51.1 °F - 26.1 °F 38% 30.06 in 10.0 mi NW 9.2 mph - N/A   Clear
10:53 AM 55.9 °F - 24.1 °F 29% 30.06 in 10.0 mi NNW 10.4 mph 17.3 mph N/A   Clear
11:53 AM 57.9 °F - 23.0 °F 26% 30.04 in 10.0 mi NW 6.9 mph - N/A   Clear
12:53 PM 62.1 °F - 23.0 °F 22% 30.01 in 10.0 mi NNW 8.1 mph - N/A   Clear
1:53 PM 64.0 °F - 23.0 °F 21% 29.96 in 10.0 mi Variable 5.8 mph - N/A   Clear
2:53 PM 66.0 °F - 23.0 °F 20% 29.90 in 10.0 mi Variable 4.6 mph - N/A   Clear
3:53 PM 69.1 °F - 23.0 °F 18% 29.86 in 10.0 mi Variable 3.5 mph - N/A   Clear
4:53 PM 71.1 °F - 24.1 °F 17% 29.82 in 10.0 mi South 9.2 mph - N/A   Clear
5:53 PM 71.1 °F - 21.9 °F 16% 29.80 in 10.0 mi South 6.9 mph - N/A   Clear
6:53 PM 70.0 °F - 21.0 °F 16% 29.78 in 10.0 mi SSW 6.9 mph - N/A   Clear
7:53 PM 64.0 °F - 25.0 °F 23% 29.78 in 10.0 mi SSE 8.1 mph - N/A   Clear
8:53 PM 59.0 °F - 27.0 °F 29% 29.77 in 10.0 mi SSE 5.8 mph - N/A   Clear
9:53 PM 55.9 °F - 27.0 °F 33% 29.78 in 10.0 mi SSE 6.9 mph - N/A   Clear
10:53 PM 54.0 °F - 28.0 °F 37% 29.77 in 10.0 mi SE 3.5 mph - N/A   Clear
11:53 PM 53.1 °F - 27.0 °F 37% 29.76 in 10.0 mi SSE 4.6 mph - N/A   Clear